TimeCDT,TemperatureF,Dew PointF,Humidity,Sea Level PressureIn,VisibilityMPH,Wind Direction,Wind SpeedMPH,Gust SpeedMPH,PrecipitationIn,Events,Conditions,WindDirDegrees,DateUTC
12:24 AM,69.8,62.6,78,29.84,10.0,SSE,17.3,-,N/A,,Mostly Cloudy,160,2013-03-17 05:24:00
12:43 AM,71.6,62.6,73,29.83,10.0,SSE,19.6,-,N/A,,Overcast,160,2013-03-17 05:43:00
12:51 AM,71.1,62.1,73,29.83,10.0,SSE,18.4,-,N/A,,Overcast,160,2013-03-17 05:51:00
1:51 AM,70.0,63.0,78,29.81,10.0,SSE,17.3,-,N/A,,Overcast,160,2013-03-17 06:51:00
2:51 AM,70.0,63.0,78,29.78,10.0,SSE,17.3,-,N/A,,Mostly Cloudy,150,2013-03-17 07:51:00
2:57 AM,69.8,62.6,78,29.79,10.0,SSE,18.4,-,N/A,,Scattered Clouds,150,2013-03-17 07:57:00
3:51 AM,68.0,62.1,81,29.78,10.0,SSE,11.5,-,N/A,,Partly Cloudy,160,2013-03-17 08:51:00
4:51 AM,66.9,62.1,84,29.77,10.0,SSE,10.4,-,N/A,,Clear,160,2013-03-17 09:51:00
5:51 AM,66.0,62.1,87,29.76,10.0,SSE,10.4,-,N/A,,Partly Cloudy,150,2013-03-17 10:51:00
6:51 AM,64.9,62.1,90,29.77,10.0,SSE,9.2,-,N/A,,Clear,150,2013-03-17 11:51:00
7:51 AM,64.9,62.1,90,29.78,8.0,SSE,8.1,-,N/A,,Partly Cloudy,150,2013-03-17 12:51:00
8:22 AM,66.2,62.6,88,29.78,10.0,SSE,8.1,-,N/A,,Mostly Cloudy,160,2013-03-17 13:22:00
8:45 AM,68.0,64.4,88,29.79,10.0,SSE,10.4,-,N/A,,Scattered Clouds,160,2013-03-17 13:45:00
8:51 AM,69.1,64.0,84,29.78,10.0,SSE,11.5,-,N/A,,Scattered Clouds,160,2013-03-17 13:51:00
9:20 AM,71.6,64.4,78,29.79,10.0,South,19.6,-,N/A,,Mostly Cloudy,170,2013-03-17 14:20:00
9:51 AM,73.9,64.9,73,29.81,10.0,South,19.6,-,N/A,,Overcast,180,2013-03-17 14:51:00
10:51 AM,75.9,64.0,67,29.80,10.0,South,19.6,-,N/A,,Mostly Cloudy,180,2013-03-17 15:51:00
11:44 AM,80.6,64.4,58,29.79,10.0,South,18.4,-,N/A,,Scattered Clouds,170,2013-03-17 16:44:00
11:51 AM,80.1,64.9,60,29.79,10.0,South,16.1,-,N/A,,Scattered Clouds,170,2013-03-17 16:51:00
12:51 PM,84.0,64.9,53,29.76,10.0,SSE,17.3,26.5,N/A,,Scattered Clouds,150,2013-03-17 17:51:00
1:51 PM,86.0,64.9,49,29.73,10.0,SSE,16.1,25.3,N/A,,Partly Cloudy,150,2013-03-17 18:51:00
2:51 PM,87.1,66.0,49,29.69,10.0,SSE,19.6,26.5,N/A,,Partly Cloudy,150,2013-03-17 19:51:00
3:51 PM,87.1,64.9,48,29.68,10.0,SE,23.0,27.6,N/A,,Partly Cloudy,140,2013-03-17 20:51:00
4:51 PM,86.0,64.9,49,29.66,10.0,SSE,21.9,29.9,N/A,,Clear,150,2013-03-17 21:51:00
5:51 PM,82.9,64.9,54,29.65,10.0,SE,23.0,-,N/A,,Clear,140,2013-03-17 22:51:00
6:51 PM,79.0,64.9,62,29.66,10.0,SSE,24.2,-,N/A,,Clear,150,2013-03-17 23:51:00
7:51 PM,75.0,66.0,73,29.67,10.0,SSE,23.0,-,N/A,,Clear,150,2013-03-18 00:51:00
8:51 PM,73.0,66.9,81,29.68,8.0,SSE,19.6,-,N/A,,Partly Cloudy,150,2013-03-18 01:51:00
9:16 PM,73.4,66.2,78,29.69,8.0,SSE,20.7,-,N/A,,Partly Cloudy,150,2013-03-18 02:16:00
9:51 PM,72.0,66.9,84,29.68,7.0,SSE,21.9,28.8,N/A,,Partly Cloudy,150,2013-03-18 02:51:00
10:51 PM,72.0,66.9,84,29.71,8.0,SSE,18.4,-,N/A,,Mostly Cloudy,160,2013-03-18 03:51:00
11:51 PM,73.0,66.9,81,29.72,8.0,South,20.7,28.8,N/A,,Overcast,170,2013-03-18 04:51:00